Voltar ao catálogo

SONATE-2

AtivoRádio AmadorPO
NORAD 59112·PAYLOAD·🇩🇪 Germany

Lançado Mar 4, 2024 de Vandenberg Space Force Base

Loading…

Próximas Passagens (próximas 24 horas)

TLE

AtualizadoSource: AMSAT

Época: Sep 14, 2026, 05:48 UTC

1 59112U 24043Q   26257.24223457  .00044891  00000-0  44284-3 0  9993
2 59112  97.5625  53.6316 0005343 228.2755 131.8048 15.65799600141799

Acompanhe SONATE-2 em tempo real com AllMySat

Download on the App Store